Le nostre stazioni meteo in Italia

Pubblicità
Il mio iltempo24.it
Grottaglie, Italia (16324): Temperatura & dewpoint: 16.10.2018 08:00:00 - 22.10.2018 08:00:00 (CEST)Grottaglie, Italia (16324): velocità del vento: 16.10.2018 08:00:00 - 22.10.2018 08:00:00 (CEST)Grottaglie, Italia (16324): direzione del vento: 16.10.2018 08:00:00 - 22.10.2018 08:00:00 (CEST)Grottaglie, Italia (16324): visibility: 16.10.2018 08:00:00 - 22.10.2018 08:00:00 (CEST)
Data & Tempo tt [°C] td [°C] ff [km/h] ff [kn] dd vv [km]
22.10.2018 08:00:00 16,0 13,0 8 4 SE 8
22.10.2018 07:00:00 - - - - - -
22.10.2018 06:00:00 - - - - - -
22.10.2018 05:00:00 - - - - - -
22.10.2018 04:00:00 - - - - - -
22.10.2018 03:00:00 - - - - - -
22.10.2018 02:00:00 - - - - - -
22.10.2018 01:00:00 - - - - - -
22.10.2018 00:00:00 - - - - - -
21.10.2018 23:00:00 - - - - - -
21.10.2018 22:00:00 - - - - - -
21.10.2018 21:00:00 - - - - - -
21.10.2018 20:00:00 17,0 13,0 8 4 NNE 10
21.10.2018 19:00:00 18,0 12,0 8 4 N 10
21.10.2018 18:00:00 19,0 12,0 9 5 NNE 10
21.10.2018 17:00:00 20,0 12,0 18 10 N 10
21.10.2018 16:00:00 21,0 11,0 21 11 NNE 10
21.10.2018 15:00:00 22,0 10,0 16 9 N 10
21.10.2018 14:00:00 23,0 10,0 16 9 N 10
21.10.2018 13:00:00 23,0 12,0 13 7 N 10
21.10.2018 12:00:00 22,0 13,0 15 8 N 10
21.10.2018 11:00:00 20,0 14,0 16 9 N 10
21.10.2018 10:00:00 19,0 14,0 21 11 NNO 10
21.10.2018 09:00:00 17,0 14,0 16 9 NNO 10
21.10.2018 08:00:00 15,0 14,0 11 6 NNO 10
21.10.2018 07:00:00 - - - - - -
21.10.2018 06:00:00 - - - - - -
21.10.2018 05:00:00 - - - - - -
21.10.2018 04:00:00 - - - - - -
21.10.2018 03:00:00 - - - - - -
21.10.2018 02:00:00 - - - - - -
21.10.2018 01:00:00 - - - - - -
21.10.2018 00:00:00 - - - - - -
20.10.2018 23:00:00 - - - - - -
20.10.2018 22:00:00 - - - - - -
20.10.2018 21:00:00 - - - - - -
20.10.2018 20:00:00 17,0 15,0 16 9 N 10
20.10.2018 19:00:00 18,0 14,0 8 4 NNE 10
20.10.2018 18:00:00 21,0 13,0 8 4 N 10
20.10.2018 17:00:00 22,0 14,0 15 8 NNO 10
20.10.2018 16:00:00 23,0 15,0 18 10 N 10
20.10.2018 15:00:00 24,0 13,0 18 10 N 10
20.10.2018 14:00:00 24,0 13,0 18 10 N 10
20.10.2018 13:00:00 24,0 13,0 22 12 N 10
20.10.2018 12:00:00 23,0 13,0 18 10 N 10
20.10.2018 11:00:00 23,0 13,0 13 7 NNO 10
20.10.2018 10:00:00 21,0 13,0 4 2 SO 10
20.10.2018 09:00:00 17,0 15,0 0 0 N 10
20.10.2018 08:00:00 13,0 12,0 4 2 SSE 10
20.10.2018 07:00:00 - - - - - -
20.10.2018 06:00:00 - - - - - -
20.10.2018 05:00:00 - - - - - -
20.10.2018 04:00:00 - - - - - -
20.10.2018 03:00:00 - - - - - -
20.10.2018 02:00:00 - - - - - -
20.10.2018 01:00:00 - - - - - -
20.10.2018 00:00:00 - - - - - -
19.10.2018 23:00:00 - - - - - -
19.10.2018 22:00:00 - - - - - -
19.10.2018 21:00:00 - - - - - -
19.10.2018 20:00:00 18,0 15,0 8 4 N 10
19.10.2018 19:00:00 20,0 16,0 0 0 N 10
19.10.2018 18:00:00 21,0 16,0 9 5 NNE 10
19.10.2018 17:00:00 23,0 15,0 11 6 NNE 10
19.10.2018 16:00:00 23,0 15,0 16 9 NNE 10
19.10.2018 15:00:00 24,0 15,0 13 7 NE 10
19.10.2018 14:00:00 24,0 16,0 15 8 NE 10
19.10.2018 13:00:00 24,0 15,0 13 7 NE 10
19.10.2018 12:00:00 23,0 16,0 0 0 N 10
19.10.2018 11:00:00 22,0 16,0 5 3 - 10
19.10.2018 10:00:00 21,0 17,0 9 5 N 10
19.10.2018 09:00:00 19,0 16,0 16 9 NNE 10
19.10.2018 08:00:00 17,0 16,0 8 4 NNE 9
19.10.2018 07:00:00 - - - - - -
19.10.2018 06:00:00 - - - - - -
19.10.2018 05:00:00 - - - - - -
19.10.2018 04:00:00 - - - - - -
19.10.2018 03:00:00 - - - - - -
19.10.2018 02:00:00 - - - - - -
19.10.2018 01:00:00 - - - - - -
19.10.2018 00:00:00 - - - - - -
18.10.2018 23:00:00 - - - - - -
18.10.2018 22:00:00 - - - - - -
18.10.2018 21:00:00 - - - - - -
18.10.2018 20:00:00 19,0 17,0 8 4 NNE 10
18.10.2018 19:00:00 21,0 18,0 8 4 ENE 10
18.10.2018 18:00:00 22,0 18,0 5 3 NO 10
18.10.2018 17:00:00 23,0 18,0 9 5 SO 10
18.10.2018 16:00:00 24,0 18,0 8 4 OSO 10
18.10.2018 15:00:00 24,0 18,0 11 6 OSO 10
18.10.2018 14:00:00 25,0 15,0 9 5 S 10
18.10.2018 13:00:00 24,0 16,0 5 3 S 10
18.10.2018 12:00:00 23,0 16,0 8 4 E 10
18.10.2018 11:00:00 23,0 17,0 5 3 E 10
18.10.2018 10:00:00 20,0 16,0 0 0 N 10
18.10.2018 09:00:00 17,0 16,0 0 0 N 10
18.10.2018 08:00:00 15,0 14,0 0 0 N 10
18.10.2018 07:00:00 - - - - - -
18.10.2018 06:00:00 - - - - - -
18.10.2018 05:00:00 - - - - - -
18.10.2018 04:00:00 - - - - - -
18.10.2018 03:00:00 - - - - - -
18.10.2018 02:00:00 - - - - - -
18.10.2018 01:00:00 - - - - - -
18.10.2018 00:00:00 - - - - - -
17.10.2018 23:00:00 - - - - - -
17.10.2018 22:00:00 - - - - - -
17.10.2018 21:00:00 - - - - - -
17.10.2018 20:00:00 20,0 17,0 0 0 N 10
17.10.2018 19:00:00 21,0 17,0 8 4 E 10
17.10.2018 18:00:00 23,0 17,0 0 0 N 10
17.10.2018 17:00:00 24,0 17,0 0 0 N 10
17.10.2018 16:00:00 23,0 17,0 15 8 SO 10
17.10.2018 15:00:00 24,0 17,0 15 8 SSO 10
17.10.2018 14:00:00 25,0 16,0 9 5 S 10
17.10.2018 13:00:00 24,0 15,0 11 6 SSE 10
17.10.2018 12:00:00 23,0 15,0 13 7 ESE 10
17.10.2018 11:00:00 23,0 16,0 11 6 ESE 10
17.10.2018 10:00:00 21,0 18,0 11 6 E 10
17.10.2018 09:00:00 20,0 18,0 8 4 E 10
17.10.2018 08:00:00 17,0 17,0 0 0 N 10
17.10.2018 07:00:00 - - - - - -
17.10.2018 06:00:00 - - - - - -
17.10.2018 05:00:00 - - - - - -
17.10.2018 04:00:00 - - - - - -
17.10.2018 03:00:00 - - - - - -
17.10.2018 02:00:00 - - - - - -
17.10.2018 01:00:00 - - - - - -
17.10.2018 00:00:00 - - - - - -
16.10.2018 23:00:00 - - - - - -
16.10.2018 22:00:00 - - - - - -
16.10.2018 21:00:00 - - - - - -
16.10.2018 20:00:00 19,0 18,0 0 0 N 10
16.10.2018 19:00:00 20,0 18,0 5 3 ESE 10
16.10.2018 18:00:00 22,0 18,0 8 4 S 10
16.10.2018 17:00:00 22,0 18,0 11 6 S 10
16.10.2018 16:00:00 23,0 16,0 15 8 SSE 10
16.10.2018 15:00:00 24,0 16,0 15 8 S 10
16.10.2018 14:00:00 24,0 16,0 15 8 S 10
16.10.2018 13:00:00 24,0 17,0 15 8 SE 10
16.10.2018 12:00:00 23,0 17,0 21 11 SE 10
16.10.2018 11:00:00 22,0 18,0 18 10 SE 10
16.10.2018 10:00:00 21,0 18,0 11 6 ESE 10
16.10.2018 09:00:00 20,0 18,0 13 7 E 10
16.10.2018 08:00:00 19,0 17,0 11 6 E 10

tt = Temperatura
td = dewpoint
ff = velocità del vento
dd = direzione del vento
vv = visibility

Stazioni seguenti

WeatherPro
AMSI
MeteoEarth